OBJECT AG, 59128

Orbit data source: Space-Track

You're viewing an uncataloged RSO

Recently launched and/or uncataloged RSOs may have evolving metadata. Metadata may include the following, but is not limited to: Owner, Manufacturer, Bus, Motor, and Mission.

OBJECT AG, 59128 is a satellite in SSO that was launched on Mon, 04 Mar 2024 UTC via an FALCON 9 launch vehicle from the Air Force Western Test Range (AFWTR). Unknown objects in Earth's orbit typically refer to objects detected orbiting the Earth but have not yet been identified or cataloged. These objects could be anything from previously untracked satellites, spent rocket stages, debris from satellite collisions, or even natural meteoroids temporarily captured by Earth's gravity.

Loading next visibility...
Identifier
59128, 2024-043AG
Orbit
SSO
Country
Flag of TBDTBD
Related business
None
Manufacturer
Unknown
Mission
Operational Commercial Technology
Bus & Motor
Unknown
Mass
Unknown
Launch date (UTC)
2024-03-04 (2 years ago)
Launch vehicle
FALCON 9
Launch site
Air Force Western Test Range (AFWTR)
Object type
Unknown
Shape & HBR
Cyl + 1 Pan, 0.8 m
Radar Cross Section
2.062 m², Large (>1 m²)

Expand to show TLE details & history
Last TLE update: 13 hours ago

TLE from 13 hours ago
0 OBJECT AG
1 59128U 24043AG  26236.60250831  .00005465  00000-0  17465-3 0  9998
2 59128  97.5728  16.8214 0009612   7.0851 353.0524 15.32847468137591
Epoch: 2026-08-24T14:27Z
TLE epoch observation values (Epoch: 2026-08-24T14:27:36.717Z)
Latitude
-0.00006°
Longitude
-172.96344°
Altitude
463.892 km
Speed
7.638 km/s
True Right ascension
01h 07m 17s
True Declination
0° 00' 00"
Sunlit
Object was in full shadow at epoch
Visualization orbit readout
Latitude
Unknown
Longitude
Unknown
Altitude
Unknown
Speed
Unknown
Apparent Right ascension
Unknown
Apparent Declination
Unknown
Sunlit
N/A
Visualization observer readout
Local Sidereal Time
18:53:42
Azimuth
Unknown
Elevation
Unknown
Doppler factor
Unknown
Orbital elements
Apogee altitude
470.854 km
Perigee altitude
457.701 km
Semi-major axis
6,842.415 km
Eccentricity
0.00096
Inclination
97.5728°
RAAN
16.8214°
Arg. of periapsis
7.0851°
True anomaly
353.03906°
Mean anomaly
353.0524°
Eccentric anomaly
353.04573°
Mean motion
3.83468 °/min
Orbital period
93.88 mins
BSTAR
0.00017465
Loading maneuver chart data...
Computing Atmospheric mass density...
Loading historical data...
Loading historical data...
Loading historical data...
Loading historical data...
Loading historical data...
Loading historical data...
Loading historical data...

Documentation

Showing up to 5 results
|